Weather Roundup
Issued by NWS

Home | Current Version | Previous Version | Text Only | Print | Product List | Glossary On
Versions: 1 2 3 4 5 6 7 8 9 10 11 12 13 14 15 16 17 18 19 20 21 22 23 24 25 26 27 28 29 30 31 32 33 34 35 36 37 38 39 40 41 42 43 44 45 46 47 48 49 50
000
NZUS93 KARX 041410
HRRWXR

CURRENT HOURLY OBSERVATIONS ACROSS
MUCH OF THE UPPER MISSISSIPPI VALLEY
NATIONAL WEATHER SERVICE LA CROSSE WI
900 AM CDT MON MAY 04 2015


...SOUTHEAST MINNESOTA...


CITY           SKY/WX    TMP DP  RH WIND       PRES   REMARKS
ROCHESTER      SUNNY     57  41  55 NE14      30.14R
ROCHESTER/MAYO FAIR      57  39  51 N6        30.13R
WINONA         SUNNY     59  43  55 N3        30.11R
AUSTIN         SUNNY     57  41  54 NE14G22   30.11R
ALBERT LEA     SUNNY     57  41  54 NE16      30.12R
DODGE CENTER   MOSUNNY   57  37  47 NE15G21   30.13R
PRESTON        SUNNY     56  43  61 NE12G17   30.12R
OWATONNA       MOSUNNY   57  37  47 NE13G20   30.14R
FARIBAULT      SUNNY     57  39  51 N9        30.14R
$$

...ELSEWHERE IN MINNESOTA...


CITY           SKY/WX    TMP DP  RH WIND       PRES   REMARKS
MINNEAPOLIS    MOSUNNY   58  35  42 NE14      30.15R
INTNL FALLS    SUNNY     48  36  63 NW8       30.18R
DULUTH         SUNNY     54  36  50 NW13      30.15R
RED WING       SUNNY     59  37  44 N7        30.12R
REDWOOD FALLS  SUNNY     60  32  34 NE8       30.16R
MANKATO          N/A    N/A N/A N/A MISG        N/A
WORTHINGTON    MOSUNNY   55  32  41 NE17      30.16R
FAIRMONT       MOSUNNY   61  34  36 NE17      30.12R
$$

...SOUTHWEST WISCONSIN...


CITY           SKY/WX    TMP DP  RH WIND       PRES   REMARKS
LA CROSSE      MOSUNNY   62  45  53 N12       30.09R
PRAIRIE DU CHI CLOUDY    59  57  91 CALM      30.07R
BOSCOBEL       CLOUDY    62  58  86 CALM      30.07R
LONE ROCK      CLOUDY    63  56  78 VRB3      30.05R
PLATTEVILLE    CLOUDY    60  58  92 N5        30.08R
FORT MC COY    PTSUNNY   58  46  63 N8        30.10R
CAMP DOUGLAS   MOSUNNY   59  59 100 N8        30.06R
VIROQUA        FAIR      58  52  78 N9        30.08R
WIS DELLS      NOT AVBL
$$

...ELSEWHERE IN WISCONSIN...


CITY           SKY/WX    TMP DP  RH WIND       PRES   REMARKS
MILWAUKEE      CLOUDY    64  54  69 NW8       30.02R
MADISON        CLOUDY    61  56  83 N9        30.05R
GREEN BAY      PTSUNNY   63  49  60 N13       30.04R
EAU CLAIRE     SUNNY     57  40  52 NE8       30.12R
BLACK RVR FLS  FAIR      59  41  52 N8        30.09R
MEDFORD        SUNNY     54  42  65 N9        30.10R
WAUSAU         MOSUNNY   57  41  55 N12       30.07R
WIS RAPIDS     MOSUNNY   59  44  57 NE14      30.08R
MARSHFIELD     MOSUNNY   60  41  49 N12       30.08R
RICE LAKE      SUNNY     56  38  51 N13       30.15S
$$

...NORTHEAST IOWA...


CITY           SKY/WX    TMP DP  RH WIND       PRES   REMARKS
DECORAH        MOSUNNY   59  52  77 N9G22     30.08R
MASON CITY     SUNNY     59  46  62 NE18      30.11R
CHARLES CITY   MOSUNNY   59  52  77 NE15      30.10R
OELWEIN        CLOUDY    61  59  94 N8G15     30.07R
$$

...ELSEWHERE IN IOWA...


CITY           SKY/WX    TMP DP  RH WIND       PRES   REMARKS
DES MOINES     CLOUDY    66  57  72 NE14      30.02R
IOWA CITY      PTSUNNY   65  60  84 N3        30.04R
FORT DODGE     PTSUNNY   59  46  63 NE15G21   30.08R
$$

...NORTHERN ILLINOIS...


CITY           SKY/WX    TMP DP  RH WIND       PRES   REMARKS
CHICAGO-OHARE  CLOUDY    64  56  75 W8        30.06R
CHICAGO-MIDWAY CLOUDY    66  58  75 SW12      30.05R
MOLINE         CLOUDY    64  58  80 S7        30.01
ROCKFORD       CLOUDY    62  57  83 NW7       30.08R
PEORIA         CLOUDY    64  61  90 SE8       30.05F FOG
$$

NOTE: "FAIR" INDICATES FEW OR NO CLOUDS BELOW 12,000 FEET WITH NO
SIGNIFICANT WEATHER AND/OR OBSTRUCTIONS TO VISIBILITY. WIND
SPEEDS ARE IN MILES-PER-HOUR.



USA.gov is the U.S. government's official web portal to all federal, state and local government web resources and services.